Home   Weather   Manali   Past weeks
Flag for India

Past Weather in Manali, Himachal Pradesh, India — Yesterday and Last 2 Weeks

Now
88 °F

Haze.


Feels Like: 89 °F
Forecast: 63 / 43 °F
Wind: No wind

Location: Amritsar Airport

Current Time: Oct 15, 2019 at 5:37:29 pm

Latest Report: Oct 15, 2019 at 4:30 pm


Visibility: 2 mi

Pressure: 29.92 "Hg (24.18 "Hg at 1894m altitude)

Humidity: 46%

Dew Point: 64 °F

Location of ManaliLocation

Past Weather in Manali — Graph

°F

Manali Temperature Yesterday

Maximum temperature yesterday: 90 °F (at 1:00 pm)
Minimum temperature yesterday: 68 °F (at 7:00 am)
Average temperature yesterday: 79 °F

High & Low Weather Summary for the Past Weeks

 TemperatureHumidityPressure
High90 °F (Oct 2, 2:00 pm)100% (Oct 3, 5:00 am)30.04 "Hg (Oct 3, 5:00 am)
Low64 °F (Oct 5, 6:00 am)40% (Oct 12, 12:30 pm)29.77 "Hg (Sep 30, 4:30 pm)
Average76 °F75%29.89 "Hg
* Reported Sep 30 3:30 pm — Oct 15 4:00 pm, Manali. Weather by CustomWeather, © 2019

Note: Actual official high and low records may vary slightly from our data, if they occured in-between our weather recording intervals... More about our weather records

Advertising

Manali Weather History for the Previous 24 Hours

Scroll right to see more
 ConditionsComfort  
Time TempWeatherWind HumidityBarometerVisibility
4:00 pm
Tue, Oct 15
90 °FHaze.2 mph46%29.92 "Hg1 mi
3:30 pm90 °FHaze.2 mph46%29.95 "Hg1 mi
3:00 pm88 °FHaze.2 mph52%29.95 "Hg1 mi
2:30 pm90 °FHaze.2 mph49%29.95 "Hg1 mi
2:00 pm88 °FHaze.2 mph55%29.95 "Hg1 mi
1:30 pm90 °FHaze.2 mph52%29.95 "Hg1 mi
1:00 pm88 °FHaze.2 mph55%29.98 "Hg1 mi
12:30 pm88 °FHaze.2 mph55%29.98 "Hg1 mi
12:00 pm86 °FHaze.2 mph59%30.01 "Hg1 mi
11:30 am84 °FHaze.2 mph62%30.01 "Hg1 mi
11:00 am84 °FHaze.2 mph62%30.01 "Hg1 mi
10:30 am82 °FHaze.No wind66%30.01 "Hg1 mi
10:00 am81 °FHaze.2 mph70%30.01 "Hg1 mi
9:30 am81 °FHaze.No wind70%30.01 "Hg1 mi
9:00 am77 °FFog.No wind79%29.98 "Hg1 mi
8:30 am73 °FFog.No wind83%29.98 "Hg1 mi
8:00 am72 °FFog.No wind88%29.98 "Hg1 mi
7:30 am70 °FFog.No wind94%29.95 "Hg1 mi
7:00 am70 °FFog.No wind94%29.95 "Hg1 mi
6:30 am70 °FFog.No wind94%29.95 "Hg1 mi
6:00 am70 °FFog.No wind88%29.92 "Hg1 mi
5:30 am70 °FFog.No wind88%29.92 "Hg1 mi
5:00 am70 °FFog.No wind88%29.92 "Hg1 mi
4:30 am70 °FFog.No wind94%29.92 "Hg1 mi
3:30 am72 °FFog.No wind88%29.92 "Hg1 mi
2:30 am72 °FHaze.No wind100%29.92 "Hg1 mi
1:00 am73 °FFog.No wind89%29.95 "Hg1 mi
12:00 am75 °FFog.No wind83%29.95 "Hg1 mi
11:30 pm
Mon, Oct 14
75 °FFog.No wind78%29.95 "Hg1 mi
11:00 pm75 °FFog.No wind83%29.95 "Hg1 mi
10:30 pm75 °FFog.No wind83%29.95 "Hg1 mi
10:00 pm75 °FHaze.No wind78%29.95 "Hg1 mi
9:30 pm75 °FHaze.No wind83%29.95 "Hg1 mi
9:00 pm77 °FHaze.No wind79%29.95 "Hg1 mi
8:30 pm79 °FHaze.No wind74%29.92 "Hg1 mi
8:00 pm77 °FHaze.2 mph74%29.92 "Hg1 mi
7:30 pm79 °FHaze.No wind70%29.92 "Hg1 mi
7:00 pm81 °FHaze.No wind66%29.92 "Hg1 mi
6:30 pm81 °FHaze.No wind66%29.92 "Hg1 mi
6:00 pm84 °FHaze.No wind62%29.89 "Hg1 mi
5:30 pm86 °FHaze.No wind59%29.89 "Hg1 mi
5:00 pm88 °FHaze.No wind55%29.89 "Hg1 mi
Weather by CustomWeather, © 2019

See weather overview